Back to catalog

STARLINK-31533

AliveCommunicationsVLEO
NORAD 59505·PAYLOAD·🇺🇸 United States

Launched Apr 13, 2024 from Cape Canaveral Space Force Station

Loading…

Next Passes (next 24 hours)

TLE

FreshSource: CelesTrak SupGP

Epoch: Sep 14, 2026, 20:47 UTC

1 59505C 24071X   26257.86645833  .00003119  00000+0  11300-3 0  2571
2 59505  43.0015 351.8744 0001424 267.9220  30.1306 15.27573238    17

Track STARLINK-31533 in real time with AllMySat

Download on the App Store